This demonstration page uses our WeatherBlox Daily Observations layout. Learn more.

40.92945, -100.16068

Hourly Observations for January 14, 2018

Temp ( °F °C ) Dew Point ( °F °C ) Humidity (%) Winds ( mph kmh ) Pressure ( in mb ) Visibility ( mi km ) Precip ( " mm )
12:15 am 00:15 Cloudy with Light Snow 19 -7 16 -9 86 86 S 8 13 30.48 1032 5 8.0467 0 0
12:35 am 00:35 Cloudy 20 -6.8 16 -9 85 85 SSW 7 11 30.48 1032 10 16.0934 0 0
12:55 am 00:55 Cloudy 20 -6.6 16 -9 83 83 SSW 5 7 30.48 1032 10 16.0934 0 0
1:15 am 01:15 Cloudy with Light Snow 21 -6.3 17 -8.6 84 84 SSW 6 9 30.48 1032 5 8.0467 0 0
1:35 am 01:35 Cloudy with Light Snow 21 -6.3 17 -8.4 85 85 SSW 5 7 30.48 1032 3 4.82802 0 0
1:55 am 01:55 Cloudy 21 -6.1 17 -8.1 86 86 SSW 5 7 30.45 1031 7 11.26538 0 0
2:15 am 02:15 Cloudy 21 -6 18 -8 86 86 SW 5 7 30.45 1031 10 16.0934 0 0
2:35 am 02:35 Cloudy 22 -5.6 18 -7.8 85 85 WSW 5 7 30.42 1030 10 16.0934 0 0
2:55 am 02:55 Cloudy 22 -5.5 18 -7.6 85 85 SW 6 9 30.42 1030 10 16.0934 0 0
3:15 am 03:15 Cloudy 21 -5.9 17 -8.1 85 85 WSW 3 6 30.45 1031 10 16.0934 0 0
3:35 am 03:35 Cloudy 21 -6.2 17 -8.1 87 87 Calm 30.45 1031 10 16.0934 0 0
3:55 am 03:55 Cloudy 22 -5.6 19 -7.5 87 87 Calm 30.42 1030 10 16.0934 0 0
4:15 am 04:15 Cloudy 22 -5.5 19 -7.5 86 86 Calm 30.42 1030 10 16.0934 0 0
4:35 am 04:35 Cloudy 22 -5.4 19 -7.5 85 85 Calm 30.42 1030 10 16.0934 0 0
4:55 am 04:55 Partly Cloudy 20 -6.5 17 -8.4 87 87 WSW 5 7 30.45 1031 10 16.0934 0 0
5:15 am 05:15 Partly Cloudy 20 -6.9 17 -8.3 90 90 W 6 9 30.45 1031 10 16.0934 0 0
5:35 am 05:35 Clear 15 -9.7 12 -11.1 90 90 Calm 30.48 1032 7 11.26538 0 0
5:55 am 05:55 Clear 17 -8.5 15 -9.7 91 91 NW 3 6 30.45 1031 7 11.26538 0 0
6:15 am 06:15 Clear with Mist and Fog 17 -8.6 14 -9.9 90 90 NW 3 6 30.48 1032 2.5 4.02335 0 0
6:35 am 06:35 Clear with Mist and Fog 13 -10.7 10 -12.4 87 87 NW 7 11 30.48 1032 4 6.43736 0 0
6:55 am 06:55 Mostly Cloudy with Mist and Fog 15 -9.2 13 -10.7 89 89 W 3 6 30.48 1032 1.25 2.011675 0 0
7:15 am 07:15 Clear with Mist and Fog 14 -10.1 11 -11.5 90 90 W 5 7 30.48 1032 3 4.82802 0 0
7:35 am 07:35 Clear with Mist and Fog 12 -11.2 8 -13.1 86 86 W 3 6 30.48 1032 2.5 4.02335 0 0
7:55 am 07:55 Clear with Mist and Fog 10 -12.1 7 -13.9 87 87 W 5 7 30.5 1033 2 3.21868 0 0
8:15 am 08:15 Cloudy with Freezing Fog 10 -12 7 -13.8 87 87 W 3 6 30.5 1033 5 8.0467 0 0
8:35 am 08:35 Cloudy with Freezing Fog 10 -12.5 6 -14.6 84 84 W 5 7 30.5 1033 5 8.0467 0 0
8:55 am 08:55 Cloudy with Freezing Fog N/A N/A N/A W 6 9 N/A 5 8.0467 0 0
9:15 am 09:15 Sunny with Mist and Fog N/A N/A N/A WNW 7 11 N/A 3 4.82802 0 0
9:35 am 09:35 Sunny N/A N/A N/A W 6 9 N/A 10 16.0934 0 0
9:55 am 09:55 Sunny N/A N/A N/A NW 5 7 N/A 10 16.0934 0 0
10:15 am 10:15 Sunny 28 -2.2 26 -3.3 92 92 Calm 30.39 1029 10 16.0934 0 0
10:35 am 10:35 Sunny 26 -3.5 24 -4.7 92 92 NW 3 6 30.39 1029 10 16.0934 0 0
10:55 am 10:55 Sunny 27 -2.6 24 -4.3 88 88 W 5 7 30.36 1028 10 16.0934 0.01 0.254
11:15 am 11:15 Partly Cloudy 29 -1.7 25 -3.7 86 86 Calm 30.36 1028 10 16.0934 0 0
11:35 am 11:35 Mostly Cloudy 36 2.2 32 -0.2 84 84 W 9 15 30.33 1027 10 16.0934 0 0
11:55 am 11:55 Cloudy 37 3 31 -0.4 79 79 W 10 17 30.3 1026 10 16.0934 0 0
12:15 pm 12:15 Partly Cloudy 38 3.2 32 -0.2 79 79 W 10 17 30.27 1025 10 16.0934 0 0
12:35 pm 12:35 Sunny 38 3.5 31 -0.3 76 76 W 12 19 30.24 1024 10 16.0934 0 0
12:55 pm 12:55 Sunny 39 3.7 31 -0.3 75 75 WSW 10 17 30.24 1024 10 16.0934 0 0
1:15 pm 13:15 Partly Cloudy 39 3.8 32 -0.2 75 75 WSW 10 17 30.21 1023 10 16.0934 0 0
1:35 pm 13:35 Partly Cloudy 39 4.1 32 -0.1 74 74 WSW 8 13 30.21 1023 10 16.0934 0 0
1:55 pm 13:55 Sunny 40 4.3 32 -0.1 73 73 WSW 10 17 30.18 1022 10 16.0934 0 0
2:15 pm 14:15 Sunny 39 4.1 32 0 75 75 WSW 7 11 30.18 1022 10 16.0934 0 0
2:35 pm 14:35 Mostly Cloudy 40 4.2 32 0 74 74 WSW 9 15 30.18 1022 10 16.0934 0 0
2:55 pm 14:55 Cloudy 39 4 32 0.1 76 76 W 7 11 30.18 1022 10 16.0934 0 0
3:15 pm 15:15 Cloudy 39 4.1 32 0.2 76 76 WSW 6 9 30.18 1022 10 16.0934 0 0
3:35 pm 15:35 Cloudy 39 4 33 0.4 78 78 WSW 5 7 30.18 1022 10 16.0934 0 0
3:55 pm 15:55 Cloudy 40 4.2 32 0.2 75 75 W 8 13 30.18 1022 10 16.0934 0 0
4:15 pm 16:15 Cloudy 39 4.1 32 0.2 76 76 W 9 15 30.18 1022 10 16.0934 0 0
4:35 pm 16:35 Cloudy 39 3.9 32 0.1 77 77 W 8 13 30.18 1022 10 16.0934 0 0
4:55 pm 16:55 Cloudy 39 3.7 32 0.1 78 78 W 9 15 30.18 1022 10 16.0934 0 0
5:15 pm 17:15 Cloudy 39 3.7 32 0.1 78 78 W 9 15 30.18 1022 10 16.0934 0 0
5:35 pm 17:35 Cloudy 39 3.7 32 0 77 77 W 9 15 30.18 1022 10 16.0934 0 0
5:55 pm 17:55 Cloudy 37 2.8 32 0 82 82 NNW 8 13 30.18 1022 10 16.0934 0 0
6:15 pm 18:15 Cloudy 38 3.3 32 0.1 80 80 NNW 13 20 30.18 1022 10 16.0934 0 0
6:35 pm 18:35 Partly Cloudy 39 3.9 32 0 76 76 NNW 10 17 30.18 1022 10 16.0934 0 0
6:55 pm 18:55 Clear 38 3.4 32 0 79 79 NNW 7 11 30.21 1023 10 16.0934 0 0
7:15 pm 19:15 Mostly Cloudy 38 3.5 32 0 78 78 NNW 14 22 30.21 1023 10 16.0934 0 0
7:35 pm 19:35 Cloudy 38 3.4 32 0 79 79 N 17 28 30.21 1023 10 16.0934 0 0
7:55 pm 19:55 Cloudy 38 3.2 32 0 80 80 N 15 24 30.21 1023 10 16.0934 0 0
8:15 pm 20:15 Cloudy 37 2.8 32 0 82 82 N 13 20 30.24 1024 10 16.0934 0 0
8:35 pm 20:35 Cloudy with Light Drizzle 37 2.8 30 -0.9 77 77 NNW 17 28 30.24 1024 10 16.0934 0 0
8:55 pm 20:55 Windy with Snow Likely 36 2.4 30 -1.3 77 77 N 24 39 30.27 1025 10 16.0934 0 0
9:15 pm 21:15 Cloudy 35 1.5 29 -1.5 81 81 NNW 20 31 30.3 1026 10 16.0934 0 0
9:35 pm 21:35 Cloudy 34 1.3 29 -1.5 82 82 NNW 17 28 30.3 1026 10 16.0934 0 0
9:55 pm 21:55 Cloudy with Light Snow 34 1 30 -1.2 85 85 NNW 14 22 30.3 1026 5 8.0467 0 0
10:15 pm 22:15 Cloudy 33 0.3 29 -1.9 85 85 N 18 30 30.33 1027 10 16.0934 0 0
10:35 pm 22:35 Mostly Cloudy 32 0 27 -2.7 82 82 N 15 24 30.33 1027 10 16.0934 0 0
10:55 pm 22:55 Mostly Cloudy 32 0 25 -3.8 76 76 NNW 17 28 30.36 1028 10 16.0934 0 0
11:15 pm 23:15 Cloudy 32 -0.2 26 -3.5 79 79 N 22 35 30.39 1029 10 16.0934 0 0
11:35 pm 23:35 Cloudy 30 -1.2 23 -5.2 75 75 N 22 35 30.39 1029 10 16.0934 0 0
11:55 pm 23:55 Cloudy 28 -2.2 20 -6.8 71 71 NNW 23 37 30.42 1030 10 16.0934 0 0

Powered by AerisWeather